Location: Unspecified
(51.5147°N, 7.4673°E)
Time: 02:44:27
(UTC+01:00)

Vanguard 1 Rocket - Pass Details

Date: 17 February 2026
Orbit: 653 x 4214 km, 34.3° (Epoch: 5 March)

Event Time Altitude Azimuth Distance (km) Brightness Sun altitude
Rises 21:21:45 0° 274° (W) 7,241 12.9 -33.1°
Reaches altitude 10° 21:29:27 10° 256° (WSW) 6,788 12.3 -34.2°
Maximum altitude 21:40:50 16° 227° (SW) 6,751 11.9 -35.7°
Drops below altitude 10° 21:53:17 10° 197° (SSW) 7,384 11.8 -37.4°
Sets 22:02:47 0° 180° (S) 8,152 12.0 -38.6°
